Location: Igri�s
(42.2144°N, 0.4320°W)
Time: 14:24:35
(UTC+00:00)

Cosmos 676 Rocket - Pass Details

Date: 13 August 2020
Orbit: 755 x 784 km, 74.0° (Epoch: 25 September)

Event Time Altitude Azimuth Distance (km) Brightness Sun altitude
Rises 19:48:49 0° 180° (S) 3,246 7.0 -8.3°
Reaches altitude 10° 19:51:16 10° 174° (S) 2,326 6.2 -8.7°
Maximum altitude 19:56:16 44° 103° (ESE) 1,073 4.4 -9.5°
Drops below altitude 10° 20:01:18 10° 32° (NNE) 2,348 6.5 -10.3°
Sets 20:03:47 0° 27° (NNE) 3,281 7.3 -10.7°
